Regional Weather Roundup
Issued by NWS

Home | Current Version | Previous Version | Graphics & Text | Print | Product List | Glossary On
Versions: 1 2 3 4 5 6 7 8 9 10 11 12 13 14 15 16 17 18 19 20 21 22 23 24 25 26 27 28 29 30 31 32 33 34 35 36 37 38 39 40 41 42 43 44 45 46 47 48 49 50
000
ASUS43 KOAX 182002
RWRNE

WEATHER ROUNDUP FOR NEBRASKA
NATIONAL WEATHER SERVICE OMAHA NE
200 PM CST WED JAN 18 2017

NOTES: SATELLITE DATA IS BEING USED TO AUGMENT CLOUD COVER ABOVE
       12000 FEET.
       "FAIR" INDICATES FEW OR NO CLOUDS BELOW 12,000 FEET WITH NO
       SIGNIFICANT WEATHER AND/OR OBSTRUCTIONS TO VISIBILITY.

  * THESE STATIONS DO NOT REPORT WEATHER SUCH AS RAIN...SNOW OR FOG.

NEZ001>004-019>022-054>056-182100-
NEBRASKA PANHANDLE

CITY           SKY/WX    TMP DP  RH WIND       PRES   REMARKS
SCOTTSBLUFF    SUNNY     50  23  34 MISG      29.78F
ALLIANCE       SUNNY     50  21  32 SW7       29.76F
CHADRON        CLOUDY    37  24  59 SW6       29.76F WCI  32
KIMBALL        CLOUDY    50  31  49 S8        29.80F
SIDNEY         CLOUDY    48  26  42 SW10      29.80F
$$

NEZ057>060-069>072-079>082-182100-
SOUTHWEST NEBRASKA

CITY           SKY/WX    TMP DP  RH WIND       PRES   REMARKS
NORTH PLATTE   SUNNY     50  30  46 SW7       29.82F
IMPERIAL       SUNNY     44  28  53 SW7       29.82F
LEXINGTON      CLOUDY    39  33  80 S14       29.85F WCI  30
MCCOOK         SUNNY     42  35  76 VRB5      29.87F
OGALLALA       SUNNY     46  32  59 W6        29.81F
$$

NEZ005>010-023>029-035>040-094-182100-
NORTH CENTRAL NEBRASKA

CITY           SKY/WX    TMP DP  RH WIND       PRES   REMARKS
VALENTINE      SUNNY     56  19  23 W7        29.74F
AINSWORTH      SUNNY     55  25  31 S10       29.76F
BROKEN BOW     SUNNY     47  36  65 S9        29.81F
O`NEILL        SUNNY     55  30  39 SW12      29.80F
ORD            SUNNY     47  37  68 S10       29.82F
THEDFORD       SUNNY     55  24  30 SW9       29.79F
$$

NEZ041-046>049-061>064-073>077-083>087-182100-
SOUTH CENTRAL NEBRASKA

CITY           SKY/WX    TMP DP  RH WIND       PRES   REMARKS
GRAND ISLAND   CLOUDY    47  40  76 S17       29.87F
AURORA         SUNNY     44  39  83 S10G16    29.89F
HASTINGS       SUNNY     47  39  74 S13       29.90F
HEBRON         SUNNY     46  38  75 S9        29.94F
HOLDREGE       CLOUDY    44  37  76 S14G21    29.87F
KEARNEY *      CLOUDY    46  37  71 S16       29.87F
YORK           SUNNY     43  39  87 S10       29.90F
$$

NEZ011>018-030>034-042>045-182100-
NORTHEAST NEBRASKA

CITY           SKY/WX    TMP DP  RH WIND       PRES   REMARKS
NORFOLK        SUNNY     47  38  71 S14       29.84F
ALBION         SUNNY     45  38  77 S10G16    29.84F
BLAIR          SUNNY     50  40  68 S18       29.91F
FREMONT        SUNNY     49  40  70 S12G17    29.90F
TEKAMAH        SUNNY     48  40  73 S12       29.90F
WAYNE          SUNNY     47  40  78 SW16      29.85F
$$

NEZ050>053-065>068-078-088>093-182100-
SOUTHEAST NEBRASKA

CITY           SKY/WX    TMP DP  RH WIND       PRES   REMARKS
LINCOLN        SUNNY     51  39  63 S15       29.94F
OMAHA EPPLEY   MOSUNNY   48  39  71 S14       29.93F
BEATRICE       SUNNY     49  39  68 S12       29.97F
FALLS CITY     SUNNY     51  38  60 S10       29.99F
NEBRASKA CITY  SUNNY     49  36  62 S12       29.97F
PLATTSMOUTH    SUNNY     48  39  70 S12       29.95F
$$

NEZ044-045-051>053-067-182100-
OMAHA AREA

CITY           SKY/WX    TMP DP  RH WIND       PRES   REMARKS
OMAHA EPPLEY   MOSUNNY   48  39  71 S14       29.93F
BLAIR          SUNNY     50  40  68 S18       29.91F
FREMONT        SUNNY     49  40  70 S12G17    29.90F
MILLARD        SUNNY     53  41  65 SE9       29.93F
OFFUTT AFB     SUNNY     47  44  88 S13       29.94F
PLATTSMOUTH    SUNNY     48  39  70 S12       29.95F
WAHOO          FAIR      50  40  69 S14       29.91F
$$



USA.gov is the U.S. government's official web portal to all federal, state and local government web resources and services.